Location: Augirein
(42.9320°N, 0.9181°E)
Time: 01:48:43
(UTC+00:00)

NOSS 3-1 (C) - Pass Details

Date: 20 June 2021
Orbit: 722 x 1486 km, 63.4° (Epoch: 30 July)

Event Time Altitude Azimuth Distance (km) Brightness Sun altitude
Exits shadow 00:31:15 34° 249° (WSW) 1,323 3.9 -23.2°
Maximum altitude 00:33:30 57° 312° (NW) 992 3.6 -23.1°
Drops below altitude 10° 00:39:37 10° 31° (NNE) 2,716 6.8 -22.9°
Sets 00:42:30 0° 35° (NE) 3,791 7.7 -22.8°
